Regional Weather Roundup
Issued by NWS

Home | Current Version | Previous Version | Text Only | Print | Product List | Glossary On
Versions: 1 2 3 4 5 6 7 8 9 10 11 12 13 14 15 16 17 18 19 20 21 22 23 24 25 26 27 28 29 30 31 32 33 34 35 36 37 38 39 40 41 42 43 44 45 46 47 48 49 50
000
ASUS43 KLOT 232309
RWRIL

ILLINOIS REGIONAL WEATHER ROUNDUP
NATIONAL WEATHER SERVICE CHICAGO/ROMEOVILLE IL
600 PM CDT SUN JUL 23 2017

NOTE: "FAIR" INDICATES FEW OR NO CLOUDS BELOW 12,000 FEET WITH NO
SIGNIFICANT WEATHER AND/OR OBSTRUCTIONS TO VISIBILITY.

* THESE STATIONS ARE NOT UNDER NWS QUALITY CONTROL. THEY ALSO MAY NOT
  REPORT WEATHER SUCH AS PRECIPITATION OR FOG.

ILZ001-002-007-009-015-016-024-240000-
NORTHWEST ILLINOIS

CITY           SKY/WX    TMP DP  RH WIND       PRES   REMARKS
MOLINE         SUNNY     84  61  45 NW16G26   29.83R HX  84
STERLING*      PTSUNNY   82  67  60 N9        29.83R HX  84
SAVANNA*       SUNNY     82  63  51 N14       29.83R HX  83
$$

ILZ003-004-008-010-011-017-018-240000-
NORTH CENTRAL ILLINOIS

CITY           SKY/WX    TMP DP  RH WIND       PRES   REMARKS
ROCKFORD       MOSUNNY   78  69  73 NE8       29.83R HX  80
FREEPORT*      MOSUNNY   80  62  54 N13G18    29.85R HX  81
ROCHELLE*      CLOUDY    76  69  78 NE10G17   29.83R
DE KALB*       CLOUDY    74  70  87 E5        29.84R
PERU*          SUNNY    N/A N/A N/A NW20      29.81R
$$

ILZ005-006-012>014-019>023-240000-
NORTHEAST ILLINOIS

CITY           SKY/WX    TMP DP  RH WIND       PRES   REMARKS
CHICAGO-OHARE  CLOUDY    71  66  84 W7        29.80R
CHICAGO-MIDWAY LGT RAIN  73  67  81 W5        29.79R
AURORA         PTSUNNY   70  64  81 E13       29.81S
LANSING*       TSTM      78  66  65 NE5       29.80S HX  80
JOLIET*        TSTM      67  66  97 E21G40    29.81R VSB 1/4
WAUKEGAN       CLOUDY    75  69  81 VRB3      29.80S
DUPAGE AIRPORT CLOUDY    67  65  93 S7        29.81F
WHEELING       CLOUDY    71  67  87 VRB3      29.81F
MORRIS*        PTSUNNY   73  66  78 NE7G20    29.81R
ROMEOVILLE*    CLOUDY    65  62  91 SE10      29.84R
NORTHERLY ISL    N/A     76  65  68 NW8         N/A
$$

LMZ740>746-240000-
SOUTHERN LAKE MICHIGAN

STATION/POSITION SKY/WX   TEMP    WIND        PRES    VSBY  WAVE
                          AIR SEA DIR/SP/G                  HT/PER
                          (F)     (DEG/KT/KT) (MB)    (MI)  (FT/S)
SOUTHERN BUOY              73 71   10/  6/  8 1008.5          0
WILMETTE HARBOR            73 74  280/  8/ 12   N/A           1/ 3
HARRISON CRIB              77     320/ 11/ 13   N/A
BURNHAM HARBOR             76                   N/A
CALUMET HARBOR             78      10/  5/  7 1009.3R
BURNS HARBOR               78     240/ 12/ 19 1011.2R
MICHIGAN CITY              77      50/  8/ 10   N/A
MICHIGAN CITY 6N           77 76   90/  4/  6   N/A           1
ST. JOSEPH                 76 75   70/ 10/ 14 1008.1          1
$$

ILZ025>027-034>036-040-047-049-050-058-095>099-240000-
WEST-CENTRAL ILLINOIS

CITY           SKY/WX    TMP DP  RH WIND       PRES   REMARKS
QUINCY         SUNNY     93  65  39 NW9       29.83R HX  95
GALESBURG*     SUNNY     83  67  58 NW12G22   29.85R HX  85
MACOMB*        SUNNY     86  68  55 NW8       29.85R HX  89
JACKSONVILLE*  CLOUDY    81  71  70 SW8       29.84R HX  85
PITTSFIELD*    CLOUDY    79  67  65 S10       29.86F THUNDER HX  81
$$

ILZ028>032-037-038-041>044-048-051>054-059>061-240000-
CENTRAL ILLINOIS

CITY           SKY/WX    TMP DP  RH WIND       PRES   REMARKS
PONTIAC        PTSUNNY   86  75  71 W7        29.80R HX  95
BLOOMINGTON    MOSUNNY   87  70  56 W15       29.83R HX  92
DECATUR        SUNNY     86  69  56 W6        29.83S HX  90
PEORIA         SUNNY     88  71  57 NW8       29.81S HX  94
LACON*         SUNNY     86  67  53 NW8G18    29.80R HX  88
LINCOLN*       SUNNY     90  73  58 CALM      29.81S HX  98
SPRINGFIELD    PTSUNNY   84  73  69 SW8       29.83S HX  90
TAYLORVILLE    TSTM      77  69  76 CALM      29.85R
$$

ILZ033-039-045-046-055>057-062-063-240000-
EAST-CENTRAL ILLINOIS

CITY           SKY/WX    TMP DP  RH WIND       PRES   REMARKS
CHAMPAIGN      SUNNY     87  73  62 W8        29.83S HX  94
RANTOUL*       SUNNY     89  71  55 W7        29.82R HX  94
MATTOON        SUNNY     87  72  60 W8        29.82F HX  93
PARIS*         SUNNY     85  73  67 W8        29.83R HX  91
$$

ILZ079-100>102-240000-
SOUTHWEST ILLINOIS

CITY           SKY/WX    TMP DP  RH WIND       PRES   REMARKS
ALTON          MOSUNNY   88  72  58 W9        29.86R HX  94
BELLEVILLE     SUNNY     90  68  49 S5        29.86R HX  93
CAHOKIA*       MOSUNNY   91  65  41 W5        29.85R HX  93
SPARTA*        SUNNY     89  65  44 SW6       29.87R HX  90
$$

ILZ064>066-069>071-074>076-080>082-084>086-088>090-092>094-240000-
SOUTH-CENTRAL ILLINOIS

CITY           SKY/WX    TMP DP  RH WIND       PRES   REMARKS
CARBONDALE     MOSUNNY   87  71  58 CALM      29.86S HX  93
CAIRO*         MOSUNNY   90  71  52 N5        29.83F HX  96
EFFINGHAM*     SUNNY     87  74  63 SW7       29.85F HX  95
MARION         MOSUNNY   88  72  58 NW7       29.87S HX  94
MT. VERNON     SUNNY     88  69  53 CALM      29.86S HX  92
CENTRALIA*     MOSUNNY   88  71  56 SW6       29.85R HX  93
SALEM*         MOSUNNY   89  68  50 W3        29.86R HX  92
METROPOLIS*    MOSUNNY   89  75  63 N3        29.84F HX  99
$$

ILZ067-068-072-073-078-083-087-091-240000-
SOUTHEAST ILLINOIS

CITY           SKY/WX    TMP DP  RH WIND       PRES   REMARKS
LAWRENCEVILLE  SUNNY     86  72  62 W8        29.84S HX  92
FLORA*         SUNNY     88  70  55 W9        29.85S HX  93
FAIRFIELD*     SUNNY     86  69  56 CALM      29.84S HX  90
HARRISBURG*    MOSUNNY   88  70  54 CALM      29.86S HX  93
ROBINSON*      MOSUNNY   84  74  70 W8        29.84R HX  91
CARMI*         MOSUNNY   84  73  70 W5        29.84F HX  91
$$

ABBREVIATIONS USED IN REMARKS
   TC - TEMPERATURE IN CELSIUS
  WCI - WIND CHILL INDEX
   HX - HEAT INDEX
  VSB - VISIBILITY
$$





USA.gov is the U.S. government's official web portal to all federal, state and local government web resources and services.